#timestamp,LO_Frequency,Hit,StdDev 
1634407215.7,286047002.7,N
1634407235.6,286047002.8,N
1634407255.4,286047001.6,N
1634407275.2,286047001.5,N
1634407295.1,286047001.3,N
1634407296.0,286047001.3,N
1634407315.8,286047001.8,N
1634407335.7,286047001.8,N
1634407355.5,286047002.6,N
1634407375.3,286047002.1,N
1634407395.2,286047001.4,N
1634407415.0,286047001.8,N
1634407415.9,286047001.8,N
1634407435.8,286047001.3,N
1634407455.6,286047004.3,Y
1634407475.4,286047002.1,P
1634407495.3,286046999.9,P
1634407515.1,286046999.9,N
1634407535.8,286047000.3,N
1634407555.7,286047000.9,N
1634407575.5,286047000.5,N
1634407595.4,286047000.1,N
1634407615.2,286046999.9,N
1634407635.0,286047000.4,N
1634407635.9,286047000.4,N
1634407655.8,286047002.6,Y
1634407675.6,286046999.7,P
1634407695.4,286047002.3,P
1634407715.3,286047002.0,N
1634407735.1,286047000.6,N
1634407755.9,286047002.6,N
1634407775.7,286047002.5,N
1634407795.5,286047002.6,N
1634407815.4,286047002.7,N
1634407835.2,286047002.1,N
1634407855.1,286046999.7,N
1634407856.0,286046999.7,N
1634407875.8,286047002.6,N
1634407895.6,286047001.6,N
1634407915.5,286047002.5,N
1634407935.3,286047000.4,N
1634407955.1,286047000.5,N
1634407975.9,286046998.2,N
1634407995.7,286046998.6,N
1634408015.6,286046998.6,N
1634408035.4,286046998.3,N
1634408055.2,286046998.8,N
1634408075.1,286047000.9,N
1634408076.0,286047000.9,N
1634408095.8,286046999.9,N
1634408115.6,286047002.7,N
1634408135.5,286047002.8,N
1634408155.3,286047002.6,N
1634408175.2,286047002.2,N
1634408195.9,286047002.0,N
1634408215.7,286047001.5,N
1634408235.6,286047004.3,N
1634408255.4,286047002.0,N
1634408275.2,286047003.9,N
1634408295.1,286047003.6,N
1634408296.0,286047003.6,N
1634408315.8,286047003.4,N
1634408335.7,286047003.3,N
1634408355.5,286047005.6,Y
1634408375.3,286047003.8,P
1634408395.2,286047003.6,P
1634408415.0,286047003.6,P
1634408415.9,286047003.6,Y
1634408435.8,286046999.8,P
1634408455.6,286047000.2,N
1634408475.4,286047002.3,N
1634408495.3,286047002.3,N
1634408515.1,286047001.6,N
1634408535.8,286047001.8,N
1634408555.7,286047001.6,N
1634408575.5,286047002.1,N
1634408595.4,286047002.7,N
1634408615.2,286046999.8,N
1634408635.0,286046998.1,N
1634408635.9,286046998.1,N
1634408655.8,286047000.7,N
1634408675.6,286046998.1,N
1634408695.4,286046998.3,N
1634408715.3,286046998.3,N
1634408735.1,286046999.0,N
1634408755.9,286046999.1,N
1634408775.7,286046998.5,N
1634408795.5,286046998.3,N
1634408815.4,286047000.6,N
1634408835.2,286047001.0,N
1634408855.0,286046999.7,N
1634408855.9,286046999.7,N
1634408875.8,286047001.6,N
1634408895.6,286047001.8,N
1634408915.5,286047002.0,N
1634408935.3,286047002.1,N
1634408955.1,286047000.1,N
1634408975.9,286047002.3,N
1634408995.7,286047001.4,N
1634409015.5,286047003.9,N
1634409035.4,286047003.7,N
1634409055.2,286047003.1,N
1634409075.1,286047002.4,N
1634409076.0,286047002.4,N
1634409095.8,286047000.9,N
1634409115.6,286046999.5,N
1634409135.5,286046999.9,N
1634409155.3,286047001.6,N
1634409175.2,286047004.4,N
1634409195.9,286047001.9,N
1634409215.7,286047001.5,N
1634409235.6,286047002.1,N
1634409255.4,286047003.8,N
1634409275.2,286047004.1,N
1634409295.1,286047003.7,N
1634409296.0,286047003.7,N
1634409315.8,286047004.1,N
1634409335.7,286047005.5,Y
1634409355.5,286047003.3,P
1634409375.3,286047001.6,N
1634409395.2,286047002.4,P
1634409415.0,286046998.5,N
1634409415.9,286046998.5,N
1634409435.8,286046997.3,N
1634409455.6,286046997.0,N
1634409475.4,286047000.7,N
1634409495.3,286046999.7,N
1634409515.1,286047002.3,N
1634409535.8,286047001.8,N
1634409555.7,286047001.5,N
1634409575.5,286047003.7,N
1634409595.4,286047003.7,N
1634409615.2,286047002.8,N
1634409635.0,286047000.9,N
1634409635.9,286047000.9,N
1634409655.8,286047000.8,N
1634409675.6,286047000.6,N
1634409695.4,286047000.9,N
1634409715.3,286046999.2,N
1634409735.1,286046998.2,N
1634409755.9,286047000.4,N
1634409775.7,286047000.6,N
1634409795.5,286046998.1,N
1634409815.4,286046998.4,N
1634409835.2,286047002.7,N
1634409855.1,286047000.1,N
1634409856.0,286047000.1,N
1634409875.8,286046999.9,N
1634409895.6,286047000.2,N
1634409915.5,286046998.3,N
1634409935.3,286047000.2,N
1634409955.1,286047002.1,N
1634409975.9,286047002.3,N
1634409995.7,286047003.8,N
1634410015.6,286047006.0,Y
1634410035.4,286047003.0,P
1634410055.2,286047003.6,P
1634410075.1,286047004.0,P
1634410076.0,286047004.0,Y
1634410095.8,286046996.9,P
1634410115.7,286046999.3,N
1634410135.5,286047000.9,N
1634410155.3,286047000.2,N
1634410175.2,286047002.0,N
1634410195.0,286047001.7,N
1634410195.9,286047001.7,N
1634410215.8,286047003.6,N
1634410235.6,286047003.0,N
1634410255.4,286047004.2,N
1634410275.3,286047004.3,N
1634410295.1,286047004.1,N
1634410315.8,286047001.7,N
1634410335.7,286047003.7,N
1634410355.5,286047003.2,N
1634410375.4,286047005.4,N
1634410395.2,286047005.6,N
1634410415.0,286047005.0,N
1634410415.9,286047005.0,N
1634410435.8,286047003.1,N
1634410455.6,286047002.9,N
1634410475.4,286047005.2,N
1634410495.3,286047005.2,N
1634410515.1,286047004.5,N
1634410535.9,286047006.9,Y
1634410555.7,286047003.4,P
1634410575.5,286047003.0,P
1634410595.4,286047003.7,P
1634410615.2,286047001.4,Y
1634410635.0,286046999.0,P
1634410636.0,286046999.0,N
1634410655.8,286046999.0,N
1634410675.6,286047000.0,N
1634410695.5,286047002.7,N
1634410715.3,286047000.5,N
1634410735.1,286047002.8,N
1634410755.9,286046999.9,N
1634410775.7,286047002.8,N
1634410795.5,286047000.4,N
